Regional Weather Roundup
Issued by NWS

Home | Current Version | Previous Version | Text Only | Print | Product List | Glossary On
Versions: 1 2 3 4 5 6 7 8 9 10 11 12 13 14 15 16 17 18 19 20 21 22 23 24 25 26 27 28 29 30 31 32 33 34 35 36 37 38 39 40 41 42 43 44 45 46 47 48 49 50
422
ASUS43 KLSX 190510
RWRMO

WEATHER SUMMARY FOR MISSOURI
NATIONAL WEATHER SERVICE SPRINGFIELD MO
1100 PM CST WED JAN 18 2017

NOTE: "FAIR" INDICATES FEW OR NO CLOUDS BELOW 12,000 FEET WITH NO
       SIGNIFICANT WEATHER AND/OR OBSTRUCTIONS TO VISIBILITY.
       CURRENT SKY AND/OR WEATHER CONDITIONS ARE NOT AVAILABLE FOR
       CHILLICOTHE AND FARMINGTON.

MOZ001>031-035>038-043-044-053-054-190600-
...NORTHERN AND WESTERN MISSOURI...

CITY           SKY/WX    TMP DP  RH WIND       PRES   REMARKS
KANSAS CTY INT CLOUDY    42  36  79 SE8       29.95F
KANSAS C DTWN  CLOUDY    41  38  89 CALM      29.96F
LEE`S SUMMIT   CLOUDY    41  38  89 E6        29.96F
ST JOSEPH      CLEAR     37  36  96 S8        29.96S
CHILLICOTHE      N/A     31  31 100 SE3       29.98F
KIRKSVILLE     CLOUDY    30  29  96 NE5       30.00S FOG     WCI  25

$$
MOZ066>068-077>081-088>096-101>105-190600-
...SOUTHWEST MISSOURI...

CITY           SKY/WX    TMP DP  RH WIND       PRES   REMARKS
SPRINGFIELD    CLOUDY    43  41  93 SE10      29.97F
JOPLIN         CLOUDY    46  45  96 SE7       29.96F
BRANSON        CLOUDY    41  41 100 E8        30.00F FOG

$$
MOZ032>034-039>042-045>050-055>058-069>072-190600-
...CENTRAL MISSOURI...

CITY           SKY/WX    TMP DP  RH WIND       PRES   REMARKS
COLUMBIA       CLOUDY    45  36  70 SE7       29.99F
JEFFERSON CITY CLOUDY    46  38  73 SE9       30.01F
ROLLA          LGT RAIN  42  41  96 SE6       30.00F FOG
SEDALIA        CLOUDY    46  38  73 SE6       29.99F
WHITEMAN AFB   CLOUDY    44  41  90 SE6       29.96F
WARRENSBURG    CLOUDY    43  36  75 E5        29.96F
OSAGE BEACH    CLOUDY    45  41  86 S3        30.01S

$$
MOZ051-052-059>065-190600-
...EAST CENTRAL MISSOURI...

CITY           SKY/WX    TMP DP  RH WIND       PRES   REMARKS
ST LOUIS INTL  CLOUDY    44  37  76 SE8       30.04F
SPIRIT OF STL  CLOUDY    43  38  82 CALM      30.03F
ST CHARLES     CLOUDY    40  38  93 E7        30.04F

$$
MOZ072>076-082>087-097>100-106>115-190600-
...SOUTH CENTRAL AND SOUTHEAST MISSOURI...

CITY           SKY/WX    TMP DP  RH WIND       PRES   REMARKS
CAPE GIRARDEAU CLOUDY    43  39  86 NW3       30.09S
FARMINGTON     CLOUDY    40  38  93 S6        30.06R
POPLAR BLUFF   CLOUDY    44  42  93 NE5       30.06F
WEST PLAINS    CLOUDY    42  40  92 E3        30.03F

$$




USA.gov is the U.S. government's official web portal to all federal, state and local government web resources and services.